SCP
0 0 0 0 0 0 0 0 0 0 0 0 0 0 0 0 0 0 0 0 0 0 0 0 0 0 0 0 0 0 0 0 0 0 0 0 0 0 0 0 0 0 0 0 0 0 0 0 0
0 0 0 0 0 0 0 0 0 0 0 0 0 0 0 0 0 0 0 0 0 0 0 0 0 0 0 0 0 0 0 0 0 0 0 0 0 0 0 0 0 0 0 0 0 0 0 0 0
0 0 0 0 0 0 0 0 0 0 0 0 0 0 0 0 0 0 0 0 0 0 0 0 0 0 0 0 0 0 0 0 0 0 0 0 0 0 0 0 0 0 0 0 0 0 0 0 0
0 0 0 0 0 0 0 0 0 0 0 0 0 0 0 0 0 0 0 0 0 0 0 0 0 0 0 0 0 0 0 0 0 0 0 0 0 0 0 0 0 0 0 0 0 0 0 0 0
0 0 0 0 0 0 0 0 0 0 0 0 0 0 0 0 0 0 0 0 0 0 0 0 0 0 0 0 0 0 0 0 0 0 0 0 0 0 0 0 0 0 0 0 0 0 0 0 0
0 0 0 0 0 0 0 0 0 0 0 0 0 0 0 0 0 0 0 0 0 0 0 0 0 0 0 0 0 0 0 0 0 0 0 0 0 0 0 0 0 0 0 0 0 0 0 0 0
0 0 0 0 0 0 0 0 0 0 0 0 0 0 0 0 0 0 0 0 0 0 0 0 0 0 0 0 0 0 0 0 0 0 0 0 0 0 0 0 0 0 0 0 0 0 0 0 0
0 0 0 0 0 0 0 0 0 0 0 0 0 0 0 0 0 0 0 0 0 0 0 0 0 0 0 0 0 0 0 0 0 0 0 0 0 0 0 0 0 0 0 0 0 0 0 0 0
0 0 0 0 0 0 0 0 0 0 0 0 0 0 0 0 0 0 0 0 0 0 0 0 0 0 0 0 0 0 0 0 0 0 0 0 0 0 0 0 0 0 0 0 0 0 0 0 0
0 0 0 0 0 0 0 0 0 0 0 0 0 0 0 0 0 0 0 0 0 0 0 0 0 0 0 0 0 0 0 0 0 0 0 0 0 0 0 0 0 0 0 0 0 0 0 0 0
0 0 0 0 0 0 0 0 0 0 0 0 0 0 0 0 0 0 0 0 0 0 0 0 0 0 0 0 0 0 0 0 0 0 0 0 0 0 0 0 0 0 0 0 0 0 0 0 0
0 0 0 0 0 0 0 0 0 0 0 0 0 0 0 0 0 0 0 0 0 0 0 0 0 0 0 0 0 0 0 0 0 0 0 0 0 0 0 0 0 0 0 0 0 0 0 0 0
0 0 0 0 0 0 0 0 0 0 0 0 0 0 0 0 0 0 0 0 0 0 0 0 0 0 0 0 0 0 0 0 0 0 0 0 0 0 0 0 0 0 0 0 0 0 0 0 0
0 0 0 0 0 0 0 0 0 0 0 0 0 0 0 0 0 0 0 0 0 0 0 0 0 0 0 0 0 0 0 0 0 0 0 0 0 0 0 0 0 0 0 0 0 0 0 0 0
0 0 0 0 0 0 0 0 0 0 0 0 0 0 0 0 0 0 0 0 0 0 0 0 0 0 0 0 0 0 0 0 0 0 0 0 0 0 0 0 0 0 0 0 0 0 0 0 0
0 0 0 0 0 0 0 0 0 0 0 0 0 0 0 0 0 0 0 0 0 0 0 0 0 0 0 0 0 0 0 0 0 0 0 0 0 0 0 0 0 0 0 0 0 0 0 0 0
0 0 0 0 0 0 0 0 0 0 0 0 0 0 0 0 0 0 0 0 0 0 0 0 0 0 0 0 0 0 0 0 0 0 0 0 0 0 0 0 0 0 0 0 0 0 0 0 0
0 0 0 0 0 0 0 0 0 0 0 0 0 0 0 0 0 0 0 0 0 0 0 0 0 0 0 0 0 0 0 0 0 0 0 0 0 0 0 0 0 0 0 0 0 0 0 0 0
0 0 0 0 0 0 0 0 0 0 0 0 0 0 0 0 0 0 0 0 0 0 0 0 0 0 0 0 0 0 0 0 0 0 0 0 0 0 0 0 0 0 0 0 0 0 0 0 0
0 0 0 0 0 0 0 0 0 0 0 0 0 0 0 0 0 0 0 0 0 0 0 0 0 0 0 0 0 0 0 0 0 0 0 0 0 0 0 0 0 0 0 0 0 0 0 0 0
0 0 0 0 0 0 0 0 0 0 0 0 0 0 0 0 0 0 0 0 0 0 0 0 0 0 0 0 0 0 0 0 0 0 0 0 0 0 0 0 0 0 0 0 0 0 0 0 0
0 0 0 0 0 0 0 0 0 0 0 0 0 0 0 0 0 0 0 0 0 0 0 0 0 0 0 0 0 0 0 0 0 0 0 0 0 0 0 0 0 0 0 0 0 0 0 0 0
0 0 0 0 0 0 0 0 0 0 0 0 0 0 0 0 0 0 0 0 0 0 0 0 0 0 0 0 0 0 0 0 0 0 0 0 0 0 0 0 0 0 0 0 0 0 0 0 0
0 0 0 0 0 0 0 0 0 0 0 0 0 0 0 0 0 0 0 0 0 0 0 0 0 0 0 0 0 0 0 0 0 0 0 0 0 0 0 0 0 0 0 0 0 0 0 0 0
0 0 0 0 0 0 0 0 0 0 0 0 0 0 0 0 0 0 0 0 0 0 0 0 0 0 0 0 0 0 0 0 0 0 0 0 0 0 0 0 0 0 0 0 0 0 0 0 0
0 0 0 0 0 0 0 0 0 0 0 0 0 0 0 0 0 0 0 0 0 0 0 0 0 0 0 0 0 0 0 0 0 0 0 0 0 0 0 0 0 0 0 0 0 0 0 0 0
0 0 0 0 0 0 0 0 0 0 0 0 0 0 0 0 0 0 0 0 0 0 0 0 0 0 0 0 0 0 0 0 0 0 0 0 0 0 0 0 0 0 0 0 0 0 0 0 0
0 0 0 0 0 0 0 0 0 0 0 0 0 0 0 0 0 0 0 0 0 0 0 0 0 0 0 0 0 0 0 0 0 0 0 0 0 0 0 0 0 0 0 0 0 0 0 0 0
0 0 0 0 0 0 0 0 0 0 0 0 0 0 0 0 0 0 0 0 0 0 0 0 0 0 0 0 0 0 0 0 0 0 0 0 0 0 0 0 0 0 0 0 0 0 0 0 0
0 0 0 0 0 0 0 0 0 0 0 0 0 0 0 0 0 0 0 0 0 0 0 0 0 0 0 0 0 0 0 0 0 0 0 0 0 0 0 0 0 0 0 0 0 0 0 0 0
Wind_Speed
12 9 5 3 3 1 6 4 6 6 6 6 4 6 11 11 8 8 4 6 4 11 13 9 9 10 10 10 10 10 11 11 10 10 11 11 12 13 15 15 16 16 17 17 17 16 16 15 14
8 6 3 3 3 4 6 6 8 9 7 4 1 6 10 8 8 7 5 4 3 9 12 9 9 9 9 9 9 9 10 10 10 10 10 11 11 13 14 15 16 16 17 17 17 16 16 15 14
7 4 3 3 3 4 6 7 9 7 4 1 3 8 8 6 7 5 4 3 4 7 9 11 10 9 9 8 8 8 9 9 9 9 9 10 11 12 14 15 16 17 17 17 17 17 16 15 15
4 3 4 3 5 8 7 8 9 8 4 1 4 8 7 6 5 5 5 4 6 6 9 11 9 8 8 8 7 7 8 8 8 8 8 9 10 12 14 15 16 16 17 17 17 17 16 15 15
3 3 4 1 6 4 7 7 4 5 5 3 3 8 6 5 7 7 7 8 8 7 7 8 7 6 7 8 7 7 7 7 7 7 7 8 9 12 13 15 15 16 16 17 17 16 16 15 15
3 3 3 3 7 5 5 4 1 3 7 4 3 8 5 5 6 5 6 8 9 8 7 6 5 4 5 6 7 7 7 7 6 6 6 7 8 11 13 14 14 15 15 15 15 15 15 14 14
3 3 6 1 7 5 5 2 1 3 6 5 6 6 7 6 2 3 6 8 8 7 6 5 3 2 2 4 5 6 7 7 6 5 5 6 7 9 11 12 13 13 13 14 14 14 14 14 13
4 4 5 3 5 6 7 4 4 5 7 4 6 4 6 3 0 3 5 7 7 6 6 5 4 2 0 2 5 5 5 5 5 5 5 5 7 8 10 10 11 12 12 12 12 12 12 12 12
3 3 4 2 1 6 8 5 4 2 5 5 6 5 4 2 2 5 4 6 6 6 5 4 4 3 2 1 4 5 5 4 4 4 6 5 4 6 7 9 10 10 10 11 11 10 9 8 8
2 2 3 5 6 5 7 5 6 4 5 6 6 6 5 4 4 5 6 6 6 5 5 4 4 3 2 1 1 3 4 4 4 3 5 4 3 4 6 10 9 9 8 9 9 7 5 4 3
2 3 4 5 9 5 5 2 2 3 2 3 8 8 6 6 6 6 7 6 5 6 6 6 5 2 1 1 1 1 1 2 2 3 2 2 3 4 5 4 4 4 5 4 4 3 4 4 4
3 3 4 4 4 3 2 1 2 1 5 5 8 7 7 7 7 6 6 5 5 6 6 6 6 2 1 0 1 3 4 5 5 7 7 4 4 4 5 4 3 3 2 3 3 3 4 4 4
3 2 1 4 2 2 3 2 3 4 8 7 6 6 7 7 6 6 5 6 6 6 6 7 6 2 3 3 5 7 7 7 7 7 8 8 6 7 7 5 5 5 4 5 4 4 5 5 5
4 1 2 3 4 2 2 4 4 5 9 7 6 7 7 6 4 5 5 5 5 5 5 6 7 7 7 8 8 7 7 7 7 7 9 9 7 7 7 7 6 6 5 5 5 5 5 4 3
1 3 5 7 7 4 3 6 8 7 10 8 7 7 6 5 4 5 4 5 5 4 4 5 6 8 9 10 9 8 7 7 7 7 9 9 9 8 8 7 6 5 4 5 4 5 4 4 4
3 3 4 6 7 5 4 8 3 9 9 8 8 8 7 5 5 5 5 5 4 4 4 5 6 8 9 9 9 8 8 8 7 6 7 9 9 9 7 7 6 5 4 5 5 5 4 4 4
5 6 8 5 7 6 6 6 6 6 7 8 8 8 8 7 6 6 5 5 4 4 5 6 6 8 9 10 10 10 8 8 7 6 7 8 9 9 8 7 6 6 6 5 5 6 5 4 5
5 7 7 6 9 7 7 8 6 8 9 8 9 8 8 8 7 7 6 5 4 4 5 6 6 7 7 8 9 8 9 8 7 7 7 9 8 9 8 8 8 7 7 6 5 6 6 5 4
9 7 8 3 6 5 8 10 8 11 10 9 9 10 9 8 8 7 6 5 5 4 5 5 6 5 5 5 5 6 6 6 6 7 9 9 9 9 8 8 8 7 7 7 7 5 6 7 6
8 8 8 7 4 2 6 11 10 10 13 12 12 11 11 10 8 8 7 6 6 6 5 5 5 4 4 5 5 5 6 6 6 5 8 9 9 9 9 8 7 7 7 8 8 6 4 5 7
8 9 9 7 3 4 4 10 13 13 13 12 11 10 12 14 12 10 8 7 7 6 5 5 5 6 7 8 8 8 6 5 5 6 6 7 8 9 8 8 7 7 7 7 7 7 7 5 5
8 7 9 7 5 5 7 7 7 9 11 13 11 9 10 11 12 11 9 8 8 6 6 6 6 7 8 8 7 8 7 6 5 5 5 7 8 8 8 8 8 7 6 7 7 7 6 5 4
3 4 1 2 4 6 6 10 8 8 9 13 12 11 10 11 12 12 10 9 8 7 6 6 6 7 7 6 7 9 9 8 7 6 8 7 6 7 7 7 7 7 6 7 7 7 7 5 4
8 4 2 0 2 7 10 13 10 9 12 12 15 14 12 12 11 11 9 9 8 7 6 6 7 6 6 8 8 10 12 11 10 8 7 5 4 5 6 7 6 6 5 6 6 6 6 5 5
7 5 2 4 5 10 10 12 10 6 3 6 12 15 13 13 12 12 12 11 10 9 8 7 8 7 7 8 9 9 10 10 10 9 8 7 4 4 5 6 5 5 5 5 5 5 5 5 5
10 9 9 8 7 5 4 11 7 3 4 4 6 12 13 13 12 12 12 11 11 10 9 9 9 8 8 8 9 8 9 7 6 7 7 6 5 5 5 6 5 5 5 5 5 4 4 4 4
8 9 7 3 1 4 8 8 6 2 2 3 6 11 13 13 13 13 12 11 11 11 9 10 10 9 8 9 9 8 8 7 8 8 7 6 5 5 6 6 6 5 5 4 4 3 3 3 2
4 6 4 6 5 8 10 11 10 11 14 11 11 13 13 13 13 13 13 12 11 10 8 9 9 9 9 8 7 7 7 8 8 7 8 7 6 6 6 6 5 5 4 4 4 3 3 3 2
8 6 7 6 6 6 8 10 5 15 14 16 17 16 17 18 16 15 13 12 11 10 9 9 9 9 9 8 8 8 7 8 8 7 7 7 6 6 6 6 5 5 4 3 3 2 2 1 1
10 11 12 9 9 8 8 9 3 2 5 13 16 16 15 15 14 13 13 13 12 12 11 10 10 9 9 8 8 8 8 8 7 7 7 7 7 6 6 6 5 4 4 3 2 1 1 1 2
Wind_Direction
302 279 278 278 271 126 88 85 91 91 75 55 30 50 63 46 53 86 71 35 60 115 126 132 122 118 113 110 109 110 108 104 98 91 86 84 88 91 87 81 75 69 63 57 51 47 43 39 37
306 311 280 251 257 120 101 104 79 67 87 111 101 93 87 70 65 82 62 28 62 116 132 138 123 116 112 109 109 111 110 106 100 94 89 88 91 92 87 82 76 69 63 57 52 48 43 40 39
282 279 276 262 324 73 108 101 97 95 96 119 79 47 54 42 43 59 39 28 78 103 123 124 127 120 115 110 109 110 110 108 103 98 95 93 94 94 91 85 79 72 65 58 53 49 45 43 42
293 252 245 265 67 42 96 107 120 126 121 26 97 84 74 33 42 57 44 35 77 85 106 123 126 127 126 121 118 117 118 118 114 109 105 102 101 100 97 92 86 78 71 64 57 52 47 45 44
233 268 253 59 83 66 69 82 111 138 128 120 98 100 86 57 50 57 50 38 55 55 76 114 107 125 135 139 138 136 135 132 128 123 116 112 111 111 107 102 95 87 79 71 65 58 52 48 45
271 267 270 174 121 116 100 97 163 101 98 83 58 104 100 71 41 50 58 55 56 49 53 81 75 98 132 148 152 151 150 148 146 140 131 125 122 121 117 110 104 97 88 81 73 67 61 55 48
301 289 288 283 122 142 119 141 181 121 108 63 1 96 122 94 31 74 82 75 65 52 45 58 63 88 144 158 162 162 164 164 164 157 147 139 133 128 124 118 114 107 99 90 81 74 69 63 55
318 296 283 297 139 147 127 133 43 20 87 57 15 64 114 84 235 127 108 93 81 66 45 35 39 28 84 182 181 172 173 177 174 169 163 157 148 138 135 130 127 121 112 101 91 83 77 70 62
294 283 272 274 157 133 131 146 104 28 90 77 58 71 90 114 153 141 130 97 79 70 51 30 16 16 351 291 163 173 180 188 186 188 186 175 172 155 147 143 139 132 121 109 97 89 90 87 70
268 282 334 18 19 103 138 173 141 176 163 132 111 103 106 93 81 87 71 57 45 49 46 25 8 6 335 315 167 186 181 176 191 198 180 190 179 142 134 138 139 132 122 108 97 91 81 63 62
269 314 47 40 23 36 124 148 113 232 208 87 126 120 105 89 70 66 66 60 38 35 34 14 346 313 280 249 240 129 97 94 75 38 59 114 106 107 106 115 117 114 116 100 96 72 54 55 43
292 38 16 75 41 4 103 136 184 230 92 74 81 107 109 94 82 67 63 53 39 35 20 356 327 295 154 96 73 65 65 59 51 37 34 60 75 78 84 81 78 69 57 63 58 55 55 52 47
263 107 57 79 116 335 359 283 249 128 121 108 108 109 102 96 102 100 87 76 54 33 13 348 336 15 93 80 68 66 63 62 55 43 36 50 70 74 74 70 64 55 50 48 45 45 44 39 31
14 357 192 180 189 184 234 262 243 157 138 141 149 131 112 106 101 99 79 74 63 38 14 3 15 43 71 76 75 72 70 66 59 50 44 52 67 76 77 71 63 55 53 54 51 48 44 38 21
295 271 233 204 197 193 200 258 227 156 148 161 164 135 125 123 114 95 91 82 75 53 34 32 41 57 73 78 78 75 71 69 64 58 52 57 66 74 78 75 68 58 57 62 56 49 47 35 20
219 239 243 196 171 141 182 253 173 129 157 177 174 154 152 140 126 108 105 96 89 78 66 56 67 74 78 81 79 76 71 69 65 60 59 62 67 73 77 74 69 63 60 59 57 41 41 29 15
208 237 239 180 169 152 209 251 142 159 184 190 181 167 160 153 140 125 115 107 105 98 93 85 83 87 89 88 84 78 72 66 60 56 57 58 63 67 71 67 59 53 51 46 55 49 36 21 359
219 224 243 216 172 175 215 251 180 185 199 204 186 174 169 162 149 126 116 112 115 113 112 108 105 103 102 97 92 84 72 63 58 55 55 57 59 62 69 68 59 55 55 44 41 56 39 19 348
288 315 305 310 122 183 233 252 234 186 201 213 196 180 175 159 132 135 138 142 134 130 130 129 127 129 124 114 103 94 83 74 64 59 58 58 59 61 67 70 64 59 59 50 39 46 46 25 2
249 263 267 281 130 184 262 265 259 199 200 204 201 186 172 150 146 153 154 157 152 145 142 135 134 124 97 91 93 95 101 87 78 67 62 59 59 61 70 68 67 63 61 51 41 38 48 39 25
238 237 245 251 180 198 265 272 241 232 208 202 203 187 170 164 163 162 165 160 148 144 140 134 126 113 108 108 109 111 100 91 74 66 65 59 62 63 66 66 67 63 64 60 47 39 49 49 25
242 234 231 256 283 254 203 272 246 232 210 201 195 187 171 159 158 160 163 157 147 137 130 126 124 122 126 132 136 133 124 119 109 101 86 69 61 64 65 66 66 65 61 59 51 44 44 55 38
196 43 55 235 253 274 265 273 254 225 223 209 199 189 176 159 158 159 161 152 141 139 137 130 127 130 137 133 123 118 116 116 116 111 99 85 69 65 66 67 68 67 63 61 56 48 44 46 52
125 102 90 223 237 252 218 235 260 212 219 207 199 187 173 159 155 151 145 139 138 138 136 135 131 125 121 119 120 128 131 133 131 126 118 107 94 80 74 74 70 70 69 66 61 57 52 47 48
144 147 201 229 222 242 207 222 250 226 224 200 181 172 166 159 158 155 153 156 154 154 152 145 141 138 133 128 127 134 136 136 136 136 131 127 116 102 92 89 83 78 77 76 74 68 58 50 51
190 178 181 213 229 252 220 229 250 90 36 29 130 152 157 162 165 164 166 165 161 159 158 155 151 147 141 136 135 136 135 132 132 132 132 128 125 123 115 104 98 90 82 80 79 76 66 53 48
168 214 214 242 247 278 249 249 247 107 198 191 159 161 170 171 170 168 168 165 161 161 163 159 153 149 145 141 138 137 133 129 130 127 121 119 125 129 125 122 116 108 97 90 94 89 73 52 49
207 173 154 191 215 249 253 229 222 199 216 199 188 182 180 176 174 171 170 165 161 161 159 153 153 152 148 144 144 138 132 130 130 127 130 133 135 134 135 131 126 123 116 103 100 99 80 57 30
180 191 189 192 204 215 261 248 225 190 196 192 193 190 185 182 181 176 170 163 158 158 161 157 158 153 152 150 144 138 137 136 133 135 140 141 143 146 145 142 136 131 124 112 102 101 85 55 348
199 190 182 187 219 219 244 257 337 67 184 181 187 188 186 183 179 174 167 163 164 167 170 168 164 160 159 152 146 145 144 142 144 149 149 147 149 151 148 144 141 142 140 136 133 139 155 238 276